Track GLOBALSTAR M091 now! 10-day predictions GLOBALSTAR M091 is classified as:
1 37741U 11033C 25199.90775749 -.00000086 00000-0 10068-3 0 9997 2 37741 51.9972 176.5611 0000291 323.5059 57.9780 12.62269334647453